Weather in Zugalay

Russia / Zabaykalsky Krai     51°28′01″N   115°01′24″E
temp.,
°C
wind,
m/s
gust,
m/s
humid.,
%
clouds,
%
prec.,
mm/h
press.,
hPa
HPBL,
m
24 may, tue
tue2400:00+9n34525 0.0 101352
03:00+7nnw455912 0.0 101665
06:00+6nnw46665 0.0 101898
09:00+13n56410 0.0 1019617
12:00+18nne472720 0.0 10192739
15:00+20nne5820100 0.0 10173343
18:00+21nne571899 0.0 10173371
21:00+16nnw22275 0.0 101812
25 may, wed
wed2500:00+13nnw43305 0.0 102033
03:00+12nnw33355 0.0 102019
06:00+11nnw33395 0.0 102124
09:00+18nw23265 0.0 1019476
12:00+22nw45205 0.0 10172709
15:00+24wnw56165 0.0 10143181
18:00+24wnw45155 0.0 10113450
21:00+18wnw33240 0.0 101132
26 may, thu
thu2600:00+14nw46241 0.0 101183
03:00+13nw33264 0.0 101027
06:00+12wnw32295 0.0 100917
09:00+20wnw35210 0.0 1007457
12:00+23wnw57185 0.0 10043038
15:00+25w581658 0.0 10003690
18:00+25wnw7916100 0.0 9973568
21:00+18wsw91236100 0.0 997309
27 may, fri
fri2700:00+15wnw3342100 0.1 99733
03:00+12wnw814530 0.1 997481
06:00+10wnw814595 0.0 997523
09:00+13wnw894855 0.0 9961211
12:00+13nw8104490 0.1 9961783
15:00+15nne684287 0.3 9971986
18:00+13nnw6844100 0.2 9971306
21:00+9nne235587 0.4 99968
28 may, sat
sat2800:00+9nnw126371 0.2 100142
03:00+4nnw47675 0.2 1002145
06:00+3nw36731 0.0 1004152
09:00+8nnw57435 0.0 10031213
12:00+13nw582784 0.0 10002535
15:00+16nnw6819100 0.0 9983465
18:00+15nnw562087 0.0 9982895
21:00+9n454885 0.2 100088